Location: Oberstdorf
(47.4188°N, 10.2969°E)
Time: 11:33:11
(UTC+02:00)

ISS - Visible Passes

Search period start: 25 September 2017 00:00
Search period end: 05 October 2017 00:00
Orbit: 401 x 407 km, 51.6° (Epoch: 25 September)

Date Brightness Start Highest point End Pass type
(mag) Time Alt. Az. Time Alt. Az. Time Alt. Az.
25 Sep -1.4 21:18:40 10° SW 21:19:29 16° SW 21:19:29 16° SW visible
26 Sep -2.8 20:26:43 10° SSW 20:29:35 28° SE 20:29:50 28° SE visible
27 Sep -2.0 19:35:11 10° S 19:37:24 17° SE 19:39:37 10° E visible
27 Sep -3.0 21:10:12 10° WSW 21:12:39 47° WSW 21:12:39 47° WSW visible
28 Sep -3.7 20:17:56 10° SW 20:21:08 56° SSE 20:22:37 27° E visible
28 Sep -0.8 21:54:31 10° W 21:55:17 16° W 21:55:17 16° W visible
29 Sep -3.3 21:01:57 10° W 21:05:07 56° NNW 21:05:07 56° NNW visible
30 Sep -3.8 20:09:28 10° WSW 20:12:44 80° NNW 20:14:52 20° ENE visible
30 Sep -1.0 21:46:24 10° WNW 21:47:30 18° WNW 21:47:30 18° WNW visible
01 Oct -2.9 20:53:48 10° W 20:56:56 42° N 20:57:10 41° N visible
02 Oct -3.2 20:01:11 10° W 20:04:24 51° NNW 20:06:46 17° ENE visible
02 Oct -1.1 21:38:08 10° WNW 21:39:24 20° NW 21:39:24 20° NW visible
03 Oct -2.8 20:45:35 10° WNW 20:48:40 37° N 20:48:57 36° NNE visible
04 Oct -2.8 19:52:57 10° W 19:56:04 40° N 19:58:28 15° ENE visible
04 Oct -1.2 21:29:45 10° WNW 21:31:06 21° NW 21:31:06 21° NW visible
